Flag for Finland Weather past 2 weeks in Joensuu, Finland

Now
28 °F

Snow. Low clouds.


Feels Like: 19 °F
Forecast: 27 / 30 °F
Wind: 10 mph from Southwest

Location: Joensuu Airport

Current Time: Jan 27, 2015 at 5:09:09 PM

Latest Report: Jan 27, 2015 at 4:50 PM


Visibility: 1 mi

Pressure: 29.62 "Hg

Humidity: 100%

Dew point: 28 °F

Location of JoensuuLocation

Historic Weather in Joensuu — Graph

°F

Joensuu temperature yesterday

Maximum temperature yesterday: 30 °F (at 10:50 PM)
Minimum temperature yesterday: 23 °F (at 12:20 AM)
Average temperature yesterday: 26 °F

Past Weeks' High & Low Weather Summary

 TemperatureHumidityPressure
High36 °F (Jan 16, 10:50 PM)100% (Jan 13, 9:20 AM)30.57 "Hg (Jan 13, 9:20 AM)
Low-15 °F (Jan 20, 8:20 PM)76% (Jan 21, 12:20 AM)29.06 "Hg (Jan 13, 7:20 AM)
Average15 °F93%29.84 "Hg
* Reported Jan 12 3:20 PM — Jan 27 3:50 PM, Joensuu, Weather by CustomWeather, © 2014

Note: Actual official high and low records may vary slightly from our data, if they occured in-between our weather recording intervals... More about our weather records

Advertising

Joensuu weather history for previous 24 hours

 ConditionsComfort  
Time TempWeatherWind HumidityBarometerVisibility
3:50 PM
Jan 27
28 °FLight snow. Low clouds.10 mph100%29.62 "HgN/A
3:20 PM28 °FLight snow. Low clouds.12 mph100%29.62 "Hg2 mi
2:50 PM28 °FLight snow. Low clouds.10 mph100%29.62 "Hg1 mi
2:20 PM28 °FLight snow. Low clouds.10 mph100%29.65 "Hg1 mi
1:50 PM28 °FLight snow. Low clouds.9 mph100%29.65 "Hg1 mi
1:20 PM28 °FLight snow. Low clouds.9 mph100%29.65 "Hg2 mi
12:50 PM27 °FLight snow. Low clouds.7 mph100%29.65 "Hg1 mi
12:20 PM27 °FSnow. Low clouds.8 mph100%29.68 "Hg1 mi
11:50 AM27 °FSnow. Low clouds.8 mph100%29.68 "Hg1 mi
11:20 AM27 °FSnow. Low clouds.9 mph100%29.68 "Hg1 mi
10:50 AM27 °FLight snow. Low clouds.9 mph93%29.71 "Hg2 mi
10:20 AM27 °FLow clouds.9 mph93%29.71 "HgN/A
9:50 AM25 °FLow clouds.10 mph100%29.71 "HgN/A
9:20 AM25 °FLow clouds.12 mph100%29.71 "HgN/A
8:50 AM25 °FLow clouds.12 mph100%29.71 "Hg5 mi
8:20 AM25 °FLow clouds.9 mph100%29.71 "Hg5 mi
7:50 AM25 °FLow clouds.9 mph100%29.71 "Hg5 mi
7:20 AM25 °FLow clouds.12 mph100%29.74 "Hg5 mi
6:50 AM25 °FLow clouds.10 mph100%29.74 "HgN/A
6:20 AM27 °FLow clouds.10 mph93%29.74 "HgN/A
5:50 AM27 °FLow clouds.10 mph93%29.74 "HgN/A
5:20 AM27 °FLow clouds.9 mph93%29.77 "HgN/A
4:50 AM27 °FLow clouds.10 mph93%29.77 "HgN/A
4:20 AM27 °FLow clouds.10 mph100%29.77 "HgN/A
3:50 AM27 °FLow clouds.12 mph100%29.77 "HgN/A
3:20 AM28 °FOvercast.10 mph93%29.80 "HgN/A
2:50 AM28 °FOvercast.10 mph93%29.80 "HgN/A
2:20 AM28 °FOvercast.9 mph93%29.80 "HgN/A
1:50 AM28 °FOvercast.10 mph93%29.80 "HgN/A
1:20 AM28 °FOvercast.12 mph93%29.80 "HgN/A
12:50 AM28 °FOvercast.10 mph93%29.83 "HgN/A
12:20 AM28 °FOvercast.8 mph93%29.83 "HgN/A
11:50 PM
Jan 26
28 °FOvercast.7 mph93%29.83 "HgN/A
11:20 PM30 °FOvercast.12 mph86%29.83 "HgN/A
10:50 PM30 °FOvercast.12 mph86%29.83 "HgN/A
10:20 PM28 °FOvercast.10 mph100%29.83 "HgN/A
9:50 PM28 °FLow clouds.8 mph100%29.86 "HgN/A
9:20 PM28 °FLow clouds.8 mph100%29.86 "HgN/A
8:50 PM28 °FLow clouds.9 mph100%29.86 "HgN/A
8:20 PM28 °FOvercast.9 mph100%29.86 "HgN/A
7:50 PM28 °FLow clouds.9 mph100%29.86 "HgN/A
7:20 PM28 °FMostly cloudy.9 mph100%29.89 "HgN/A
6:50 PM28 °FLow clouds.8 mph100%29.89 "HgN/A
6:20 PM28 °FSnow flurries. Low clouds.8 mph100%29.89 "Hg6 mi
5:50 PM28 °FLow clouds.7 mph100%29.89 "HgN/A
5:20 PM28 °FLow clouds.8 mph93%29.89 "HgN/A
Weather by CustomWeather, © 2014

See weather overviewHow to use our weather pages